Time,TemperatureF,DewpointF,PressureIn,WindDirection,WindDirectionDegrees,WindSpeedMPH,WindSpeedGustMPH,Humidity,HourlyPrecipIn,Conditions,Clouds,dailyrainin,SoftwareType,DateUTC
2013-03-01 00:05:00,40.1,27.3,29.71,NE,45,7.4,7.4,60,0.00,,,0.00,WUHU21423XXSP,2013-03-01 05:05:00,
2013-03-01 00:07:00,40.8,27.6,29.71,East,90,1.3,7.4,59,0.00,,,0.00,WUHU21423XXSP,2013-03-01 05:07:00,
2013-03-01 00:11:00,40.8,27.6,29.71,ENE,67,0.0,7.4,60,0.00,,,0.00,WUHU21423XXSP,2013-03-01 05:11:00,
2013-03-01 00:17:00,39.7,27.0,29.71,ENE,67,0.0,1.3,61,0.00,,,0.00,WUHU21423XXSP,2013-03-01 05:17:00,
2013-03-01 00:23:00,38.8,27.0,29.71,NE,45,2.2,2.2,62,0.00,,,0.00,WUHU21423XXSP,2013-03-01 05:23:00,
2013-03-01 00:30:00,39.9,27.2,29.71,WNW,292,1.8,2.2,61,0.00,,,0.00,WUHU21423XXSP,2013-03-01 05:30:00,
2013-03-01 00:36:00,40.6,27.5,29.71,WNW,292,2.5,2.5,60,0.00,,,0.00,WUHU21423XXSP,2013-03-01 05:36:00,
2013-03-01 00:43:00,40.1,27.3,29.71,South,180,0.0,2.5,60,0.00,,,0.00,WUHU21423XXSP,2013-03-01 05:43:00,
2013-03-01 00:49:00,39.7,27.0,29.71,North,0,0.9,3.4,60,0.00,,,0.00,WUHU21423XXSP,2013-03-01 05:49:00,
2013-03-01 00:56:00,39.7,27.0,29.71,NE,45,0.0,3.8,60,0.00,,,0.00,WUHU21423XXSP,2013-03-01 05:56:00,
2013-03-01 01:02:00,40.1,27.1,29.71,NW,315,0.0,2.0,60,0.00,,,0.00,WUHU21423XXSP,2013-03-01 06:02:00,
2013-03-01 01:08:00,39.7,27.0,29.71,NW,315,0.0,0.0,60,0.00,,,0.00,WUHU21423XXSP,2013-03-01 06:08:00,
2013-03-01 01:15:00,39.0,26.3,29.71,NW,315,0.0,0.0,60,0.00,,,0.00,WUHU21423XXSP,2013-03-01 06:15:00,
2013-03-01 01:21:00,38.5,26.5,29.71,WNW,292,0.0,6.3,62,0.00,,,0.00,WUHU21423XXSP,2013-03-01 06:21:00,
2013-03-01 01:28:00,38.5,26.5,29.71,East,90,0.7,6.3,62,0.00,,,0.00,WUHU21423XXSP,2013-03-01 06:28:00,
2013-03-01 01:34:00,39.6,27.0,29.71,West,270,0.7,2.9,62,0.00,,,0.00,WUHU21423XXSP,2013-03-01 06:34:00,
2013-03-01 01:41:00,39.4,27.0,29.71,SSE,157,0.0,2.9,61,0.00,,,0.00,WUHU21423XXSP,2013-03-01 06:41:00,
2013-03-01 01:47:00,38.5,26.5,29.71,ESE,112,0.0,0.0,62,0.00,,,0.00,WUHU21423XXSP,2013-03-01 06:47:00,
2013-03-01 01:53:00,37.9,26.4,29.72,WNW,292,1.6,7.4,62,0.00,,,0.00,WUHU21423XXSP,2013-03-01 06:53:00,
2013-03-01 02:00:00,38.8,26.9,29.71,West,270,6.9,7.4,63,0.00,,,0.00,WUHU21423XXSP,2013-03-01 07:00:00,
2013-03-01 02:06:00,39.9,27.5,29.71,NW,315,3.6,6.9,61,0.00,,,0.00,WUHU21423XXSP,2013-03-01 07:06:00,
2013-03-01 02:13:00,39.9,27.5,29.71,NNW,337,5.1,5.1,61,0.00,,,0.00,WUHU21423XXSP,2013-03-01 07:13:00,
2013-03-01 02:19:00,39.9,27.5,29.71,West,270,5.4,5.4,61,0.00,,,0.00,WUHU21423XXSP,2013-03-01 07:19:00,
2013-03-01 02:26:00,39.6,27.2,29.71,NNW,337,1.6,5.4,61,0.00,,,0.00,WUHU21423XXSP,2013-03-01 07:26:00,
2013-03-01 02:32:00,39.0,27.0,29.71,East,90,0.0,3.6,62,0.00,,,0.00,WUHU21423XXSP,2013-03-01 07:32:00,
2013-03-01 02:38:00,38.8,26.9,29.72,East,90,0.0,3.6,62,0.00,,,0.00,WUHU21423XXSP,2013-03-01 07:38:00,
2013-03-01 02:45:00,38.5,26.9,29.72,NW,315,0.0,0.0,63,0.00,,,0.00,WUHU21423XXSP,2013-03-01 07:45:00,
2013-03-01 02:51:00,38.5,26.9,29.71,NW,315,6.3,6.3,63,0.00,,,0.00,WUHU21423XXSP,2013-03-01 07:51:00,
2013-03-01 02:58:00,38.8,27.2,29.71,NNW,337,0.0,6.3,63,0.00,,,0.00,WUHU21423XXSP,2013-03-01 07:58:00,
2013-03-01 03:04:00,38.7,27.1,29.71,ENE,67,1.1,1.3,63,0.00,,,0.00,WUHU21423XXSP,2013-03-01 08:04:00,
2013-03-01 03:10:00,38.5,27.3,29.71,ENE,67,1.6,2.7,64,0.00,,,0.00,WUHU21423XXSP,2013-03-01 08:10:00,
2013-03-01 03:17:00,38.8,27.6,29.71,NNE,22,0.0,2.7,64,0.00,,,0.00,WUHU21423XXSP,2013-03-01 08:17:00,
2013-03-01 03:24:00,38.8,27.6,29.71,ENE,67,0.0,1.6,64,0.00,,,0.00,WUHU21423XXSP,2013-03-01 08:24:00,
2013-03-01 03:30:00,38.8,27.6,29.71,ENE,67,0.0,1.6,64,0.00,,,0.00,WUHU21423XXSP,2013-03-01 08:30:00,
2013-03-01 03:36:00,38.5,27.7,29.71,NW,315,0.0,0.0,65,0.00,,,0.00,WUHU21423XXSP,2013-03-01 08:36:00,
2013-03-01 03:43:00,37.8,27.0,29.71,NW,315,0.0,0.0,65,0.00,,,0.00,WUHU21423XXSP,2013-03-01 08:43:00,
2013-03-01 03:49:00,37.0,26.9,29.71,NW,315,0.0,0.0,66,0.00,,,0.00,WUHU21423XXSP,2013-03-01 08:49:00,
2013-03-01 03:55:00,36.5,26.7,29.71,North,0,0.0,0.0,67,0.00,,,0.00,WUHU21423XXSP,2013-03-01 08:55:00,
2013-03-01 04:02:00,36.3,26.4,29.71,East,90,2.2,2.2,67,0.00,,,0.00,WUHU21423XXSP,2013-03-01 09:02:00,
2013-03-01 04:08:00,36.3,26.8,29.72,ESE,112,0.0,2.2,68,0.00,,,0.00,WUHU21423XXSP,2013-03-01 09:08:00,
2013-03-01 04:15:00,36.3,26.8,29.73,East,90,1.8,1.8,68,0.00,,,0.00,WUHU21423XXSP,2013-03-01 09:15:00,
2013-03-01 04:21:00,36.5,26.9,29.72,East,90,0.0,1.8,68,0.00,,,0.00,WUHU21423XXSP,2013-03-01 09:21:00,
2013-03-01 04:28:00,36.3,27.1,29.72,ENE,67,3.1,3.8,69,0.00,,,0.00,WUHU21423XXSP,2013-03-01 09:28:00,
2013-03-01 04:34:00,36.3,27.1,29.72,ENE,67,0.0,3.8,69,0.00,,,0.00,WUHU21423XXSP,2013-03-01 09:34:00,
2013-03-01 04:40:00,36.0,27.3,29.73,ENE,67,1.1,3.1,70,0.00,,,0.00,WUHU21423XXSP,2013-03-01 09:40:00,
2013-03-01 04:47:00,35.8,27.0,29.73,ESE,112,0.0,1.8,70,0.00,,,0.00,WUHU21423XXSP,2013-03-01 09:47:00,
2013-03-01 04:53:00,35.4,26.9,29.73,ESE,112,0.0,0.0,71,0.00,,,0.00,WUHU21423XXSP,2013-03-01 09:53:00,
2013-03-01 05:00:00,35.8,27.3,29.74,ESE,112,0.0,0.0,71,0.00,,,0.00,WUHU21423XXSP,2013-03-01 10:00:00,
2013-03-01 05:06:00,36.0,27.1,29.74,ESE,112,0.0,0.0,70,0.00,,,0.00,WUHU21423XXSP,2013-03-01 10:06:00,
2013-03-01 05:12:00,36.3,27.5,29.74,ESE,112,0.0,0.0,70,0.00,,,0.00,WUHU21423XXSP,2013-03-01 10:12:00,
2013-03-01 05:19:00,36.3,27.5,29.74,ESE,112,0.0,0.0,71,0.00,,,0.00,WUHU21423XXSP,2013-03-01 10:19:00,
2013-03-01 05:25:00,36.0,27.5,29.74,ESE,112,0.0,0.0,71,0.00,,,0.00,WUHU21423XXSP,2013-03-01 10:25:00,
2013-03-01 05:32:00,35.8,27.6,29.74,ESE,112,0.0,0.0,72,0.00,,,0.00,WUHU21423XXSP,2013-03-01 10:32:00,
2013-03-01 05:38:00,35.8,27.6,29.74,ESE,112,0.0,0.0,72,0.00,,,0.00,WUHU21423XXSP,2013-03-01 10:38:00,
2013-03-01 05:45:00,35.8,27.6,29.74,ESE,112,0.0,0.0,72,0.00,,,0.00,WUHU21423XXSP,2013-03-01 10:45:00,
2013-03-01 05:51:00,35.6,27.8,29.74,ENE,67,0.0,0.0,73,0.00,,,0.00,WUHU21423XXSP,2013-03-01 10:51:00,
2013-03-01 05:58:00,35.6,28.1,29.74,ENE,67,0.0,0.0,74,0.00,,,0.00,WUHU21423XXSP,2013-03-01 10:58:00,
2013-03-01 06:04:00,35.4,27.6,29.74,ENE,67,0.0,0.0,73,0.00,,,0.00,WUHU21423XXSP,2013-03-01 11:04:00,
2013-03-01 06:10:00,35.2,27.7,29.74,ENE,67,0.0,0.0,74,0.00,,,0.00,WUHU21423XXSP,2013-03-01 11:10:00,
2013-03-01 06:17:00,35.2,27.7,29.74,ENE,67,0.0,0.0,75,0.00,,,0.00,WUHU21423XXSP,2013-03-01 11:17:00,
2013-03-01 06:23:00,34.9,27.7,29.75,ENE,67,0.0,0.0,75,0.00,,,0.00,WUHU21423XXSP,2013-03-01 11:23:00,
2013-03-01 06:30:00,34.9,27.7,29.75,ENE,67,0.0,0.0,75,0.00,,,0.00,WUHU21423XXSP,2013-03-01 11:30:00,
2013-03-01 06:36:00,35.2,28.0,29.75,ENE,67,0.0,0.0,75,0.00,,,0.00,WUHU21423XXSP,2013-03-01 11:36:00,
2013-03-01 06:43:00,34.9,27.7,29.75,ENE,67,0.0,0.0,75,0.00,,,0.00,WUHU21423XXSP,2013-03-01 11:43:00,
2013-03-01 06:49:00,34.7,27.8,29.76,ENE,67,0.0,0.0,76,0.00,,,0.00,WUHU21423XXSP,2013-03-01 11:49:00,
2013-03-01 06:55:00,34.5,27.6,29.76,ENE,67,0.0,0.0,76,0.00,,,0.00,WUHU21423XXSP,2013-03-01 11:55:00,
2013-03-01 07:02:00,34.9,27.8,29.76,ENE,67,0.0,0.0,76,0.00,,,0.00,WUHU21423XXSP,2013-03-01 12:02:00,
2013-03-01 07:08:00,34.9,28.0,29.78,ENE,67,0.0,0.0,76,0.00,,,0.00,WUHU21423XXSP,2013-03-01 12:08:00,
2013-03-01 07:15:00,34.9,28.3,29.77,ENE,67,0.0,0.0,77,0.00,,,0.00,WUHU21423XXSP,2013-03-01 12:15:00,
2013-03-01 07:21:00,34.7,28.1,29.77,ENE,67,0.0,0.0,77,0.00,,,0.00,WUHU21423XXSP,2013-03-01 12:21:00,
2013-03-01 07:27:00,34.7,28.1,29.77,ENE,67,0.0,0.0,77,0.00,,,0.00,WUHU21423XXSP,2013-03-01 12:27:00,
2013-03-01 07:32:00,34.7,28.1,29.78,ENE,67,0.0,0.0,77,0.00,,,0.00,WUHU21423XXSP,2013-03-01 12:32:00,
2013-03-01 07:38:00,34.9,28.3,29.78,ENE,67,0.0,0.0,77,0.00,,,0.00,WUHU21423XXSP,2013-03-01 12:38:00,
2013-03-01 07:45:00,35.2,28.7,29.79,ENE,67,0.0,0.0,77,0.00,,,0.00,WUHU21423XXSP,2013-03-01 12:45:00,
2013-03-01 07:51:00,35.2,28.7,29.78,ENE,67,0.0,0.0,77,0.00,,,0.00,WUHU21423XXSP,2013-03-01 12:51:00,
2013-03-01 07:57:00,35.2,28.7,29.79,ENE,67,0.0,0.0,77,0.00,,,0.00,WUHU21423XXSP,2013-03-01 12:57:00,
2013-03-01 08:04:00,35.4,28.7,29.79,ENE,67,0.0,0.0,77,0.00,,,0.00,WUHU21423XXSP,2013-03-01 13:04:00,
2013-03-01 08:10:00,35.4,28.9,29.79,ENE,67,0.0,0.0,77,0.00,,,0.00,WUHU21423XXSP,2013-03-01 13:10:00,
2013-03-01 08:17:00,35.8,29.2,29.79,ENE,67,0.0,0.0,77,0.00,,,0.00,WUHU21423XXSP,2013-03-01 13:17:00,
2013-03-01 08:23:00,36.1,29.9,29.79,ENE,67,0.0,0.0,78,0.00,,,0.00,WUHU21423XXSP,2013-03-01 13:23:00,
2013-03-01 08:29:00,36.1,29.9,29.79,ENE,67,0.0,0.0,78,0.00,,,0.00,WUHU21423XXSP,2013-03-01 13:29:00,
2013-03-01 08:36:00,36.1,29.9,29.79,ENE,67,0.0,0.0,78,0.00,,,0.00,WUHU21423XXSP,2013-03-01 13:36:00,
2013-03-01 08:42:00,36.3,30.1,29.78,ENE,67,0.0,0.0,78,0.00,,,0.00,WUHU21423XXSP,2013-03-01 13:42:00,
2013-03-01 08:49:00,36.5,30.1,29.78,ENE,67,0.0,0.0,78,0.00,,,0.00,WUHU21423XXSP,2013-03-01 13:49:00,
2013-03-01 08:55:00,36.7,30.5,29.79,ENE,67,0.0,0.0,78,0.00,,,0.00,WUHU21423XXSP,2013-03-01 13:55:00,
2013-03-01 09:02:00,37.0,30.6,29.79,ENE,67,0.0,0.0,78,0.00,,,0.00,WUHU21423XXSP,2013-03-01 14:02:00,
2013-03-01 09:08:00,37.2,30.7,29.79,ENE,67,0.0,0.0,77,0.00,,,0.00,WUHU21423XXSP,2013-03-01 14:08:00,
2013-03-01 09:14:00,37.9,31.0,29.79,ENE,67,0.0,0.0,76,0.00,,,0.00,WUHU21423XXSP,2013-03-01 14:14:00,
2013-03-01 09:21:00,38.8,31.2,29.79,NW,315,4.5,4.5,74,0.00,,,0.00,WUHU21423XXSP,2013-03-01 14:21:00,
2013-03-01 09:27:00,39.4,30.4,29.79,West,270,0.0,4.5,70,0.00,,,0.00,WUHU21423XXSP,2013-03-01 14:27:00,
2013-03-01 09:34:00,39.7,30.4,29.79,West,270,0.0,0.9,69,0.00,,,0.00,WUHU21423XXSP,2013-03-01 14:34:00,
2013-03-01 09:40:00,39.9,30.0,29.79,West,270,0.0,0.9,67,0.00,,,0.00,WUHU21423XXSP,2013-03-01 14:40:00,
2013-03-01 09:47:00,39.9,29.8,29.79,NW,315,0.0,3.1,66,0.00,,,0.00,WUHU21423XXSP,2013-03-01 14:47:00,
2013-03-01 09:53:00,40.1,29.6,29.79,NW,315,0.9,0.9,66,0.00,,,0.00,WUHU21423XXSP,2013-03-01 14:53:00,
2013-03-01 09:59:00,40.1,29.2,29.79,NNW,337,0.0,0.9,65,0.00,,,0.00,WUHU21423XXSP,2013-03-01 14:59:00,
2013-03-01 10:06:00,40.3,29.0,29.79,NE,45,1.3,1.3,64,0.00,,,0.00,WUHU21423XXSP,2013-03-01 15:06:00,
2013-03-01 10:12:00,40.3,29.0,29.79,NNE,22,0.0,1.3,64,0.00,,,0.00,WUHU21423XXSP,2013-03-01 15:12:00,
2013-03-01 10:19:00,40.5,29.2,29.80,West,270,4.9,4.9,64,0.00,,,0.00,WUHU21423XXSP,2013-03-01 15:19:00,
2013-03-01 10:25:00,40.3,28.6,29.80,West,270,2.7,4.9,63,0.00,,,0.00,WUHU21423XXSP,2013-03-01 15:25:00,
2013-03-01 10:31:00,40.5,28.4,29.80,West,270,4.9,4.9,62,0.00,,,0.00,WUHU21423XXSP,2013-03-01 15:31:00,
2013-03-01 10:38:00,40.6,28.2,29.80,WNW,292,0.0,4.9,61,0.00,,,0.00,WUHU21423XXSP,2013-03-01 15:38:00,
2013-03-01 10:45:00,40.8,28.4,29.80,WNW,292,2.2,3.6,61,0.00,,,0.00,WUHU21423XXSP,2013-03-01 15:45:00,
2013-03-01 10:51:00,40.8,28.4,29.80,NNW,337,6.5,6.5,61,0.00,,,0.00,WUHU21423XXSP,2013-03-01 15:51:00,
2013-03-01 10:57:00,41.0,28.6,29.80,NNW,337,1.1,6.5,61,0.00,,,0.00,WUHU21423XXSP,2013-03-01 15:57:00,
2013-03-01 11:04:00,41.2,28.4,29.79,North,0,2.5,2.5,60,0.00,,,0.00,WUHU21423XXSP,2013-03-01 16:04:00,
2013-03-01 11:10:00,41.0,28.2,29.80,West,270,5.6,5.6,60,0.00,,,0.00,WUHU21423XXSP,2013-03-01 16:10:00,
2013-03-01 11:16:00,41.2,28.4,29.80,NW,315,1.1,5.6,60,0.00,,,0.00,WUHU21423XXSP,2013-03-01 16:16:00,
2013-03-01 11:23:00,41.4,28.5,29.81,NW,315,1.1,3.8,60,0.00,,,0.00,WUHU21423XXSP,2013-03-01 16:23:00,
2013-03-01 11:29:00,41.5,28.3,29.80,North,0,0.7,3.4,59,0.00,,,0.00,WUHU21423XXSP,2013-03-01 16:29:00,
2013-03-01 11:36:00,41.5,28.3,29.80,WNW,292,2.5,3.1,59,0.00,,,0.00,WUHU21423XXSP,2013-03-01 16:36:00,
2013-03-01 11:42:00,41.7,28.0,29.80,WNW,292,1.6,3.1,58,0.00,,,0.00,WUHU21423XXSP,2013-03-01 16:42:00,
2013-03-01 11:49:00,42.1,27.9,29.80,North,0,4.3,4.3,57,0.00,,,0.00,WUHU21423XXSP,2013-03-01 16:49:00,
2013-03-01 11:55:00,42.4,28.2,29.80,NNW,337,3.4,4.5,56,0.00,,,0.00,WUHU21423XXSP,2013-03-01 16:55:00,
2013-03-01 12:01:00,42.4,28.2,29.80,West,270,0.0,3.4,57,0.00,,,0.00,WUHU21423XXSP,2013-03-01 17:01:00,
2013-03-01 12:08:00,42.6,27.9,29.79,NNW,337,3.8,3.8,56,0.00,,,0.00,WUHU21423XXSP,2013-03-01 17:08:00,
2013-03-01 12:14:00,42.8,28.3,29.79,NNW,337,3.8,3.8,56,0.00,,,0.00,WUHU21423XXSP,2013-03-01 17:14:00,
2013-03-01 12:21:00,42.4,27.3,29.80,NNW,337,0.0,3.8,56,0.00,,,0.00,WUHU21423XXSP,2013-03-01 17:21:00,
2013-03-01 12:27:00,41.9,27.4,29.79,WNW,292,2.9,6.7,56,0.00,,,0.00,WUHU21423XXSP,2013-03-01 17:27:00,
2013-03-01 12:33:00,41.7,27.1,29.79,West,270,7.6,7.6,56,0.00,,,0.00,WUHU21423XXSP,2013-03-01 17:33:00,
2013-03-01 12:40:00,41.9,27.3,29.79,NW,315,2.9,7.6,56,0.00,,,0.00,WUHU21423XXSP,2013-03-01 17:40:00,
2013-03-01 12:46:00,42.1,27.0,29.79,NW,315,0.0,7.6,55,0.00,,,0.00,WUHU21423XXSP,2013-03-01 17:46:00,
2013-03-01 12:53:00,42.1,27.0,29.78,NW,315,0.0,3.6,55,0.00,,,0.00,WUHU21423XXSP,2013-03-01 17:53:00,
2013-03-01 12:59:00,42.4,27.3,29.78,WNW,292,1.8,1.8,55,0.00,,,0.00,WUHU21423XXSP,2013-03-01 17:59:00,
2013-03-01 13:06:00,41.9,26.4,29.78,NE,45,4.0,7.2,54,0.00,,,0.00,WUHU21423XXSP,2013-03-01 18:06:00,
2013-03-01 13:12:00,42.1,26.5,29.79,NNW,337,1.1,7.2,54,0.00,,,0.00,WUHU21423XXSP,2013-03-01 18:12:00,
2013-03-01 13:18:00,42.4,26.5,29.78,West,270,7.2,7.2,54,0.00,,,0.00,WUHU21423XXSP,2013-03-01 18:18:00,
2013-03-01 13:25:00,42.6,27.1,29.78,WNW,292,1.8,7.2,54,0.00,,,0.00,WUHU21423XXSP,2013-03-01 18:25:00,
2013-03-01 13:31:00,42.6,27.1,29.78,NW,315,3.6,3.6,54,0.00,,,0.00,WUHU21423XXSP,2013-03-01 18:31:00,
2013-03-01 13:38:00,42.6,27.1,29.78,WNW,292,5.6,5.6,54,0.00,,,0.00,WUHU21423XXSP,2013-03-01 18:38:00,
2013-03-01 13:44:00,42.6,27.1,29.77,NW,315,0.0,5.6,53,0.00,,,0.00,WUHU21423XXSP,2013-03-01 18:44:00,
2013-03-01 13:51:00,42.6,26.6,29.77,WNW,292,0.9,2.5,53,0.00,,,0.00,WUHU21423XXSP,2013-03-01 18:51:00,
2013-03-01 13:57:00,43.0,27.0,29.77,NW,315,0.0,2.5,53,0.00,,,0.00,WUHU21423XXSP,2013-03-01 18:57:00,
2013-03-01 14:04:00,43.2,27.1,29.77,WNW,292,0.0,2.7,53,0.00,,,0.00,WUHU21423XXSP,2013-03-01 19:04:00,
2013-03-01 14:10:00,43.3,27.3,29.77,NW,315,1.1,2.7,53,0.00,,,0.00,WUHU21423XXSP,2013-03-01 19:10:00,
2013-03-01 14:16:00,43.2,27.1,29.77,NNW,337,3.6,3.6,53,0.00,,,0.00,WUHU21423XXSP,2013-03-01 19:16:00,
2013-03-01 14:23:00,43.2,27.1,29.77,NE,45,0.0,3.6,53,0.00,,,0.00,WUHU21423XXSP,2013-03-01 19:23:00,
2013-03-01 14:29:00,43.2,27.1,29.76,NE,45,4.0,4.0,53,0.00,,,0.00,WUHU21423XXSP,2013-03-01 19:29:00,
2013-03-01 14:36:00,43.0,27.0,29.77,North,0,3.8,4.0,53,0.00,,,0.00,WUHU21423XXSP,2013-03-01 19:36:00,
2013-03-01 14:42:00,42.6,26.6,29.77,North,0,0.4,5.4,53,0.00,,,0.00,WUHU21423XXSP,2013-03-01 19:42:00,
2013-03-01 14:48:00,42.6,26.6,29.76,WNW,292,1.6,5.4,53,0.00,,,0.00,WUHU21423XXSP,2013-03-01 19:48:00,
2013-03-01 14:55:00,43.0,27.4,29.76,NNW,337,0.4,3.4,53,0.00,,,0.00,WUHU21423XXSP,2013-03-01 19:55:00,
2013-03-01 15:01:00,43.0,27.0,29.76,WNW,292,2.0,2.0,53,0.00,,,0.00,WUHU21423XXSP,2013-03-01 20:01:00,
2013-03-01 15:08:00,42.8,26.8,29.76,West,270,6.3,6.3,53,0.00,,,0.00,WUHU21423XXSP,2013-03-01 20:08:00,
2013-03-01 15:14:00,42.1,26.1,29.76,West,270,0.0,6.3,53,0.00,,,0.00,WUHU21423XXSP,2013-03-01 20:14:00,
2013-03-01 15:21:00,42.1,26.5,29.76,WNW,292,0.0,3.6,54,0.00,,,0.00,WUHU21423XXSP,2013-03-01 20:21:00,
2013-03-01 15:27:00,42.4,26.7,29.76,West,270,0.0,3.6,54,0.00,,,0.00,WUHU21423XXSP,2013-03-01 20:27:00,
2013-03-01 15:33:00,42.4,26.9,29.76,West,270,0.0,0.0,54,0.00,,,0.00,WUHU21423XXSP,2013-03-01 20:33:00,
2013-03-01 15:40:00,42.6,27.1,29.76,West,270,0.9,0.9,54,0.00,,,0.00,WUHU21423XXSP,2013-03-01 20:40:00,
2013-03-01 15:46:00,42.4,26.9,29.76,NW,315,0.0,0.9,54,0.00,,,0.00,WUHU21423XXSP,2013-03-01 20:46:00,
2013-03-01 15:53:00,42.4,26.9,29.76,NW,315,0.0,2.9,54,0.00,,,0.00,WUHU21423XXSP,2013-03-01 20:53:00,
2013-03-01 15:59:00,42.1,26.5,29.76,WNW,292,2.9,2.9,54,0.00,,,0.00,WUHU21423XXSP,2013-03-01 20:59:00,
2013-03-01 16:05:00,41.7,26.2,29.77,WNW,292,5.1,5.1,54,0.00,,,0.00,WUHU21423XXSP,2013-03-01 21:05:00,
2013-03-01 16:12:00,41.7,26.7,29.77,WNW,292,0.0,5.1,54,0.00,,,0.00,WUHU21423XXSP,2013-03-01 21:12:00,
2013-03-01 16:18:00,41.7,26.2,29.77,ENE,67,0.0,0.0,54,0.00,,,0.00,WUHU21423XXSP,2013-03-01 21:18:00,
2013-03-01 16:25:00,41.7,26.2,29.77,ENE,67,0.0,1.8,54,0.00,,,0.00,WUHU21423XXSP,2013-03-01 21:25:00,
2013-03-01 16:31:00,41.5,26.3,29.77,NE,45,7.2,7.2,55,0.00,,,0.00,WUHU21423XXSP,2013-03-01 21:31:00,
2013-03-01 16:38:00,41.2,26.6,29.78,NE,45,0.0,7.2,56,0.00,,,0.00,WUHU21423XXSP,2013-03-01 21:38:00,
2013-03-01 16:44:00,41.2,26.6,29.78,NE,45,0.0,2.7,56,0.00,,,0.00,WUHU21423XXSP,2013-03-01 21:44:00,
2013-03-01 16:51:00,40.8,26.2,29.78,NE,45,0.0,3.4,56,0.00,,,0.00,WUHU21423XXSP,2013-03-01 21:51:00,
2013-03-01 16:57:00,40.8,26.2,29.78,ENE,67,4.0,4.0,56,0.00,,,0.00,WUHU21423XXSP,2013-03-01 21:57:00,
2013-03-01 17:03:00,40.6,26.5,29.78,ENE,67,0.0,4.0,57,0.00,,,0.00,WUHU21423XXSP,2013-03-01 22:03:00,
2013-03-01 17:10:00,40.6,26.1,29.78,WNW,292,0.0,2.9,56,0.00,,,0.00,WUHU21423XXSP,2013-03-01 22:10:00,
2013-03-01 17:16:00,40.5,26.3,29.78,ENE,67,0.0,2.9,57,0.00,,,0.00,WUHU21423XXSP,2013-03-01 22:16:00,
2013-03-01 17:22:00,40.3,26.2,29.79,ENE,67,0.0,1.6,57,0.00,,,0.00,WUHU21423XXSP,2013-03-01 22:22:00,
2013-03-01 17:29:00,40.3,26.2,29.78,ENE,67,0.0,2.2,57,0.00,,,0.00,WUHU21423XXSP,2013-03-01 22:29:00,
2013-03-01 17:35:00,40.3,25.7,29.79,ENE,67,2.9,5.1,56,0.00,,,0.00,WUHU21423XXSP,2013-03-01 22:35:00,
2013-03-01 17:42:00,40.1,26.0,29.79,ENE,67,2.2,5.1,57,0.00,,,0.00,WUHU21423XXSP,2013-03-01 22:42:00,
2013-03-01 17:48:00,39.9,26.0,29.79,ENE,67,4.0,4.0,57,0.00,,,0.00,WUHU21423XXSP,2013-03-01 22:48:00,
2013-03-01 17:55:00,39.7,25.6,29.79,ENE,67,2.0,4.0,57,0.00,,,0.00,WUHU21423XXSP,2013-03-01 22:55:00,
2013-03-01 18:01:00,39.7,25.6,29.79,North,0,2.0,2.0,57,0.00,,,0.00,WUHU21423XXSP,2013-03-01 23:01:00,
2013-03-01 18:07:00,39.6,25.6,29.79,North,0,2.0,2.0,57,0.00,,,0.00,WUHU21423XXSP,2013-03-01 23:07:00,
2013-03-01 18:14:00,39.6,25.5,29.79,ENE,67,2.5,3.1,57,0.00,,,0.00,WUHU21423XXSP,2013-03-01 23:14:00,
2013-03-01 18:20:00,39.4,25.5,29.80,ENE,67,1.6,2.5,57,0.00,,,0.00,WUHU21423XXSP,2013-03-01 23:20:00,
2013-03-01 18:27:00,39.4,25.3,29.80,ENE,67,2.2,2.2,57,0.00,,,0.00,WUHU21423XXSP,2013-03-01 23:27:00,
2013-03-01 18:33:00,39.4,25.3,29.80,East,90,5.6,5.6,57,0.00,,,0.00,WUHU21423XXSP,2013-03-01 23:33:00,
2013-03-01 18:39:00,39.4,25.3,29.81,NE,45,3.6,5.6,57,0.00,,,0.00,WUHU21423XXSP,2013-03-01 23:39:00,
2013-03-01 18:46:00,39.0,25.0,29.81,NNW,337,0.0,4.9,57,0.00,,,0.00,WUHU21423XXSP,2013-03-01 23:46:00,
2013-03-01 18:52:00,39.0,25.0,29.81,ENE,67,2.7,4.9,57,0.00,,,0.00,WUHU21423XXSP,2013-03-01 23:52:00,
2013-03-01 18:59:00,39.0,25.4,29.81,NE,45,0.0,2.7,58,0.00,,,0.00,WUHU21423XXSP,2013-03-01 23:59:00,
2013-03-01 19:05:00,39.0,25.0,29.81,West,270,0.0,2.9,57,0.00,,,0.00,WUHU21423XXSP,2013-03-02 00:05:00,
2013-03-01 19:12:00,39.0,24.5,29.81,North,0,5.8,5.8,56,0.00,,,0.00,WUHU21423XXSP,2013-03-02 00:12:00,
2013-03-01 19:18:00,39.4,24.9,29.81,NNW,337,5.4,5.8,56,0.00,,,0.00,WUHU21423XXSP,2013-03-02 00:18:00,
2013-03-01 19:24:00,39.0,24.1,29.82,NW,315,2.5,5.4,55,0.00,,,0.00,WUHU21423XXSP,2013-03-02 00:24:00,
2013-03-01 19:31:00,39.0,24.1,29.83,North,0,2.9,3.8,55,0.00,,,0.00,WUHU21423XXSP,2013-03-02 00:31:00,
2013-03-01 19:37:00,39.0,24.1,29.83,NW,315,1.1,5.4,55,0.00,,,0.00,WUHU21423XXSP,2013-03-02 00:37:00,
2013-03-01 19:44:00,39.0,24.5,29.83,North,0,1.6,5.4,56,0.00,,,0.00,WUHU21423XXSP,2013-03-02 00:44:00,
2013-03-01 19:50:00,38.8,23.9,29.83,WNW,292,5.6,5.6,55,0.00,,,0.00,WUHU21423XXSP,2013-03-02 00:50:00,
2013-03-01 19:56:00,38.8,23.9,29.83,NNW,337,4.7,5.6,55,0.00,,,0.00,WUHU21423XXSP,2013-03-02 00:56:00,
2013-03-01 20:03:00,38.8,23.9,29.83,NW,315,1.8,6.7,55,0.00,,,0.00,WUHU21423XXSP,2013-03-02 01:03:00,
2013-03-01 20:09:00,38.8,23.9,29.83,NNW,337,2.0,6.7,55,0.00,,,0.00,WUHU21423XXSP,2013-03-02 01:09:00,
2013-03-01 20:16:00,38.5,23.6,29.84,NNW,337,3.6,5.6,55,0.00,,,0.00,WUHU21423XXSP,2013-03-02 01:16:00,
2013-03-01 20:22:00,38.5,23.6,29.84,North,0,2.5,3.6,55,0.00,,,0.00,WUHU21423XXSP,2013-03-02 01:22:00,
2013-03-01 20:29:00,38.5,23.6,29.83,NW,315,4.3,4.3,55,0.00,,,0.00,WUHU21423XXSP,2013-03-02 01:29:00,
2013-03-01 20:35:00,38.5,23.6,29.84,North,0,0.0,4.3,55,0.00,,,0.00,WUHU21423XXSP,2013-03-02 01:35:00,
2013-03-01 20:41:00,38.3,23.6,29.84,WNW,292,1.3,1.8,55,0.00,,,0.00,WUHU21423XXSP,2013-03-02 01:41:00,
2013-03-01 20:48:00,38.3,23.4,29.84,NNW,337,1.6,2.7,55,0.00,,,0.00,WUHU21423XXSP,2013-03-02 01:48:00,
2013-03-01 20:54:00,38.1,23.3,29.84,NW,315,2.0,2.0,55,0.00,,,0.00,WUHU21423XXSP,2013-03-02 01:54:00,
2013-03-01 21:01:00,38.1,23.3,29.84,WNW,292,3.6,3.6,55,0.00,,,0.00,WUHU21423XXSP,2013-03-02 02:01:00,
2013-03-01 21:07:00,38.1,23.3,29.84,NW,315,0.0,4.5,55,0.00,,,0.00,WUHU21423XXSP,2013-03-02 02:07:00,
2013-03-01 21:14:00,38.1,23.3,29.84,North,0,4.5,4.5,55,0.00,,,0.00,WUHU21423XXSP,2013-03-02 02:14:00,
2013-03-01 21:20:00,38.1,23.3,29.84,NW,315,4.5,4.5,55,0.00,,,0.00,WUHU21423XXSP,2013-03-02 02:20:00,
2013-03-01 21:26:00,37.9,23.6,29.84,NNW,337,3.6,4.5,56,0.00,,,0.00,WUHU21423XXSP,2013-03-02 02:26:00,
2013-03-01 21:33:00,37.9,23.6,29.84,North,0,0.4,3.8,56,0.00,,,0.00,WUHU21423XXSP,2013-03-02 02:33:00,
2013-03-01 21:39:00,37.9,23.6,29.84,NW,315,4.0,4.0,56,0.00,,,0.00,WUHU21423XXSP,2013-03-02 02:39:00,
2013-03-01 21:46:00,37.9,23.6,29.84,NW,315,5.6,5.6,56,0.00,,,0.00,WUHU21423XXSP,2013-03-02 02:46:00,
2013-03-01 21:52:00,37.8,23.4,29.84,SSW,202,2.0,5.6,56,0.00,,,0.00,WUHU21423XXSP,2013-03-02 02:52:00,
2013-03-01 21:58:00,37.8,23.4,29.84,NNE,22,0.0,3.4,56,0.00,,,0.00,WUHU21423XXSP,2013-03-02 02:58:00,
2013-03-01 22:05:00,37.8,23.4,29.84,NE,45,5.8,5.8,56,0.00,,,0.00,WUHU21423XXSP,2013-03-02 03:05:00,
2013-03-01 22:11:00,37.6,23.8,29.84,East,90,2.5,5.8,57,0.00,,,0.00,WUHU21423XXSP,2013-03-02 03:11:00,
2013-03-01 22:18:00,37.6,23.7,29.84,NW,315,1.1,5.8,57,0.00,,,0.00,WUHU21423XXSP,2013-03-02 03:18:00,
2013-03-01 22:24:00,37.6,23.7,29.84,NNW,337,2.7,5.4,57,0.00,,,0.00,WUHU21423XXSP,2013-03-02 03:24:00,
2013-03-01 22:31:00,37.6,23.7,29.84,NNW,337,0.0,3.1,57,0.00,,,0.00,WUHU21423XXSP,2013-03-02 03:31:00,
2013-03-01 22:37:00,37.4,23.5,29.84,NE,45,4.7,4.7,57,0.00,,,0.00,WUHU21423XXSP,2013-03-02 03:37:00,
2013-03-01 22:43:00,37.2,23.5,29.84,NE,45,0.0,4.7,58,0.00,,,0.00,WUHU21423XXSP,2013-03-02 03:43:00,
2013-03-01 22:50:00,37.2,23.8,29.84,NE,45,0.0,2.0,58,0.00,,,0.00,WUHU21423XXSP,2013-03-02 03:50:00,
2013-03-01 22:56:00,37.2,23.8,29.84,North,0,0.0,2.9,58,0.00,,,0.00,WUHU21423XXSP,2013-03-02 03:56:00,
2013-03-01 23:03:00,37.2,23.8,29.84,ENE,67,0.0,0.0,58,0.00,,,0.00,WUHU21423XXSP,2013-03-02 04:03:00,
2013-03-01 23:09:00,37.0,23.6,29.84,ENE,67,0.9,0.9,58,0.00,,,0.00,WUHU21423XXSP,2013-03-02 04:09:00,
2013-03-01 23:16:00,37.0,23.6,29.84,NE,45,0.0,3.6,58,0.00,,,0.00,WUHU21423XXSP,2013-03-02 04:16:00,
2013-03-01 23:22:00,37.0,23.6,29.84,NE,45,4.7,4.7,58,0.00,,,0.00,WUHU21423XXSP,2013-03-02 04:22:00,
2013-03-01 23:28:00,36.9,23.9,29.84,NE,45,1.8,4.7,59,0.00,,,0.00,WUHU21423XXSP,2013-03-02 04:28:00,
2013-03-01 23:35:00,36.7,23.7,29.84,NNE,22,0.0,4.7,59,0.00,,,0.00,WUHU21423XXSP,2013-03-02 04:35:00,
2013-03-01 23:41:00,36.7,23.7,29.84,NNE,22,0.0,0.0,59,0.00,,,0.00,WUHU21423XXSP,2013-03-02 04:41:00,
2013-03-01 23:48:00,36.7,23.7,29.84,ENE,67,0.0,0.0,59,0.00,,,0.00,WUHU21423XXSP,2013-03-02 04:48:00,
2013-03-01 23:54:00,36.5,23.6,29.84,North,0,0.0,0.0,59,0.00,,,0.00,WUHU21423XXSP,2013-03-02 04:54:00,